#timestamp,LO_Frequency,Hit 
1505530815.4,286046998.3,N
1505530835.2,286046998.3,N
1505530855.1,286046996.9,N
1505530856.0,286046996.9,N
1505530875.8,286046999.0,N
1505530895.6,286046997.8,N
1505530915.5,286046995.6,N
1505530935.3,286046994.0,N
1505530955.1,286046994.1,N
1505530975.9,286046995.6,N
1505530995.7,286046997.5,N
1505531015.5,286046995.6,N
1505531035.4,286046998.6,N
1505531055.2,286046996.9,N
1505531075.0,286046996.5,N
1505531075.9,286046996.5,N
1505531095.8,286046999.2,N
1505531115.6,286046998.6,N
1505531135.4,286047003.7,N
1505531155.2,286047002.6,N
1505531175.1,286046998.9,N
1505531176.0,286046998.9,N
1505531195.8,286046998.9,N
1505531215.6,286046995.0,N
1505531235.5,286046996.0,N
1505531255.3,286046996.4,N
1505531275.1,286046997.8,N
1505531295.9,286046997.4,N
1505531315.7,286046997.4,N
1505531335.5,286046996.7,N
1505531355.4,286046999.4,N
1505531375.2,286046998.2,N
1505531395.0,286046998.1,N
1505531395.9,286046998.1,N
1505531415.8,286046996.6,N
1505531435.6,286046997.2,N
1505531455.4,286047001.1,N
1505531475.3,286047001.0,N
1505531495.1,286046998.2,N
1505531496.0,286046998.2,N
1505531515.8,286046996.9,N
1505531535.6,286046999.6,N
1505531555.5,286046999.4,N
1505531575.3,286046999.4,N
1505531595.1,286047000.4,N
1505531615.9,286046997.8,N
1505531635.7,286046996.7,N
1505531655.5,286046999.0,N
1505531675.4,286046998.7,N
1505531695.2,286046993.3,P
1505531715.0,286046994.0,N
1505531715.9,286046994.0,N
1505531735.8,286046993.3,P
1505531755.6,286047000.3,N
1505531775.4,286047002.5,N
1505531795.3,286047004.0,N
1505531815.1,286047000.4,N
1505531835.8,286047001.2,N
1505531855.7,286047001.1,N
1505531875.5,286047001.0,N
1505531895.3,286047001.7,N
1505531915.2,286047003.0,N
1505531935.9,286047003.9,N
1505531955.7,286047000.3,N
1505531975.6,286047005.5,N
1505531995.4,286047001.3,N
1505532015.2,286047002.6,N
1505532035.1,286047003.8,N
1505532036.0,286047003.8,N
1505532055.8,286047001.0,N
1505532075.6,286047002.6,N
1505532095.4,286046999.7,N
1505532115.3,286047002.6,N
1505532135.1,286047001.6,N
1505532155.8,286047003.9,N
1505532175.7,286047005.6,N
1505532195.5,286047006.9,N
1505532215.3,286047009.0,P
1505532235.2,286047008.7,N
1505532255.0,286047008.9,N
1505532255.9,286047008.9,N
1505532275.7,286047008.1,N
1505532295.6,286047006.3,N
1505532315.4,286047007.3,P
1505532335.2,286046999.2,P
1505532355.1,286046997.9,N
1505532356.0,286046997.9,N
1505532375.8,286046998.3,N
1505532395.6,286047000.1,N
1505532415.5,286047004.1,N
1505532435.3,286047003.7,N
1505532455.1,286047001.4,N
1505532475.9,286047001.8,N
1505532495.7,286047005.0,N
1505532515.5,286047003.4,N
1505532535.4,286047002.9,N
1505532555.2,286047004.8,N
1505532575.0,286047005.1,N
1505532575.9,286047005.1,N
1505532595.8,286047005.7,N
1505532615.6,286047004.2,N
1505532635.4,286046999.7,N
1505532655.2,286047005.9,N
1505532675.1,286047005.1,N
1505532676.0,286047005.1,N
1505532695.8,286047002.5,N
1505532715.6,286047001.0,N
1505532735.5,286046998.4,N
1505532755.3,286046998.5,N
1505532775.1,286046997.0,N
1505532795.9,286046997.2,N
1505532815.7,286046998.0,N
1505532835.5,286046997.1,N
1505532855.4,286046996.7,N
1505532875.2,286046997.5,N
1505532895.0,286046995.1,N
1505532895.9,286046995.1,N
1505532915.8,286046995.0,N
1505532935.6,286046997.0,N
1505532955.4,286047000.2,N
1505532975.3,286047000.1,N
1505532995.1,286047001.5,N
1505532996.0,286047001.5,N
1505533015.8,286047001.4,N
1505533035.6,286047001.5,N
1505533055.5,286047002.0,N
1505533075.3,286047001.5,N
1505533095.1,286047005.9,N
1505533115.9,286047004.1,N
1505533135.7,286047001.5,N
1505533155.5,286046999.9,N
1505533175.4,286047000.8,N
1505533195.2,286047000.5,N
1505533215.0,286046998.3,N
1505533215.9,286046998.3,N
1505533235.8,286047000.5,N
1505533255.6,286047000.6,N
1505533275.4,286047004.1,N
1505533295.3,286047001.5,N
1505533315.1,286047005.5,N
1505533316.0,286047005.5,N
1505533335.8,286047003.2,N
1505533355.7,286047001.4,N
1505533375.5,286047003.1,N
1505533395.3,286047004.0,N
1505533415.1,286047004.7,N
1505533435.9,286047004.0,N
1505533455.7,286047003.5,N
1505533475.5,286047004.7,N
1505533495.4,286047005.3,N
1505533515.2,286047005.7,N
1505533535.0,286047007.1,P
1505533536.0,286047007.1,P
1505533555.8,286047002.7,N
1505533575.6,286047000.7,N
1505533595.4,286046999.9,N
1505533615.3,286047000.3,N
1505533635.1,286046997.0,N
1505533655.8,286046999.1,N
1505533675.7,286046997.1,N
1505533695.5,286046993.9,N
1505533715.3,286046998.9,N
1505533735.2,286046999.6,N
1505533755.9,286046998.0,N
1505533775.7,286046996.5,N
1505533795.6,286046993.5,N
1505533815.4,286046994.3,N
1505533835.2,286046995.2,N
1505533855.0,286046998.9,N
1505533856.0,286046998.9,N
1505533875.8,286046998.4,N
1505533895.6,286046995.9,N
1505533915.4,286046995.9,N
1505533935.3,286046996.8,N
1505533955.1,286046996.6,N
1505533975.8,286046998.9,N
1505533995.7,286047001.8,N
1505534015.5,286047003.2,N
1505534035.3,286047001.3,N
1505534055.2,286047000.5,N
1505534075.9,286047002.7,N
1505534095.7,286046998.0,N
1505534115.6,286046995.5,N
1505534135.4,286046995.3,N
1505534155.2,286046996.4,N
1505534175.0,286046995.4,N
1505534175.9,286046995.4,N
1505534195.8,286046999.6,N
1505534215.6,286046999.6,N
1505534235.4,286046997.0,N
1505534255.3,286046995.0,N
1505534275.1,286046997.6,N
1505534295.8,286046996.8,N
1505534315.7,286046999.2,N
1505534335.5,286046999.1,N
1505534355.3,286046995.6,N
1505534375.2,286046995.8,N
1505534395.9,286046993.4,N
